Flag for Germany Weather past 2 weeks in Ingolstadt, Bavaria, Germany

Now
43 °F

Partly sunny.


Feels Like: 37 °F
Forecast: 35 / 51 °F
Wind: 10 mph from Northwest

Location: Ingolstadt Airport

Current Time: Mar 27, 2015 at 2:20:28 PM

Latest Report: Mar 27, 2015 at 2:00 PM


Visibility: N/A

Pressure: 30.04 "Hg

Humidity: 71%

Dew point: 34 °F

Location of IngolstadtLocation

Historic Weather in Ingolstadt — Graph

°F

Ingolstadt temperature yesterday

Maximum temperature yesterday: 46 °F (at 2:20 AM)
Minimum temperature yesterday: 41 °F (at 9:20 PM)
Average temperature yesterday: 44 °F

Past Weeks' High & Low Weather Summary

 TemperatureHumidityPressure
High63 °F (Mar 17, 2:20 PM)100% (Mar 19, 6:20 AM)30.36 "Hg (Mar 19, 6:20 AM)
Low27 °F (Mar 20, 6:20 AM)31% (Mar 19, 5:20 PM)29.56 "Hg (Mar 25, 1:20 PM)
Average43 °F70%30.06 "Hg
* Reported Mar 12 12:20 PM — Mar 27 12:20 PM, Ingolstadt, Weather by CustomWeather, © 2015

Note: Actual official high and low records may vary slightly from our data, if they occured in-between our weather recording intervals... More about our weather records

Advertising

Ingolstadt weather history for previous 24 hours

 ConditionsComfort  
Time TempWeatherWind HumidityBarometerVisibility
12:20 PM
Fri, Mar 27
46 °FPartly sunny.12 mph53%30.04 "HgN/A
11:20 AM45 °FBroken clouds.16 mph66%30.04 "HgN/A
10:20 AM45 °FScattered clouds.13 mph81%30.01 "HgN/A
9:20 AM41 °FLight rain. More clouds than sun.10 mph93%30.01 "Hg5 mi
8:20 AM41 °FRain. Fog.10 mph87%30.01 "Hg3 mi
7:20 AM41 °FLight rain. Partly sunny.8 mph87%29.98 "HgN/A
6:20 AM41 °FPartly sunny.12 mph87%29.95 "HgN/A
5:20 AM41 °FDrizzle. Overcast.12 mph87%29.92 "HgN/A
4:20 AM41 °FQuite cool.8 mph87%29.89 "Hg3 mi
3:20 AM39 °FChilly.5 mph93%29.89 "Hg3 mi
2:20 AM39 °FChilly.6 mph93%29.89 "Hg3 mi
1:20 AM41 °FQuite cool.6 mph87%29.86 "Hg3 mi
12:20 AM41 °FQuite cool.5 mph100%29.86 "Hg2 mi
11:20 PM
Thu, Mar 26
41 °FQuite cool.3 mph100%29.86 "Hg2 mi
10:20 PM41 °FQuite cool.3 mph100%29.83 "Hg1 mi
9:20 PM41 °FQuite cool.2 mph93%29.83 "Hg2 mi
8:20 PM43 °FQuite cool.5 mph87%29.83 "Hg2 mi
7:20 PM43 °FQuite cool.3 mph87%29.83 "Hg2 mi
6:20 PM43 °FDrizzle. Partly sunny.6 mph87%29.83 "Hg4 mi
5:20 PM45 °FPartly sunny.5 mph76%29.80 "Hg4 mi
5:00 PM45 °FFog.6 mph76%29.80 "Hg3 mi
4:20 PM45 °FFog.8 mph76%29.80 "Hg3 mi
3:20 PM43 °FDrizzle. Fog.9 mph87%29.80 "Hg3 mi
2:20 PM45 °FPartly sunny.12 mph81%29.80 "Hg4 mi
Weather by CustomWeather, © 2015

See weather overviewHow to use our weather pages